• Join FlightAware (Why Join?)
  • Login
  • US Flag 
08:18PM EST


 

Airport Tracker/Info


-or-


 

Live Flight TrackerFlight Track Log ✈ FLG4262 ✈ 16-Nov-2013 ✈ KDTW - KBGM

Flight Track Log - Related Links

Times and Time Zones

All times are in EST time to prevent confusion due to time zone crossing. See the FLG4262 flight status page for this flight to view local times or setup timezone preferences in your user account.

Time Position Orientation Groundspeed Altitude Reporting Facility
EST Latitude Longitude Course Direction KTS MPH feet Rate Location/Type
04:02PM 42.2008 -83.3550 182° South 155 178 1,300  Level Cleveland Center
04:03PM 42.1861 -83.3558 182° South 148 170 2,400 1,899 Climbing Cleveland Center
04:04PM 42.1472 -83.3481 172° South 192 221 3,800 1,672 Climbing Cleveland Center
04:04PM 42.1372 -83.3378 143° Southeast 209 241 4,100 2,226 Climbing Cleveland Center
04:05PM 42.0911 -83.2819 138° Southeast 249 287 6,100 2,226 Climbing Cleveland Center
04:05PM 42.0897 -83.2719 101° East 286 329 6,400 2,323 Climbing Cleveland Center
04:06PM 42.1081 -83.1900 73° East 299 344 8,500 2,754 Climbing Cleveland Center
04:06PM 42.1186 -83.1692 56° Northeast 323 372 9,200 2,323 Climbing Cleveland Center
04:07PM 42.1569 -83.0628 64° Northeast 325 374 10,900 1,525 Climbing Cleveland Center
04:08PM 42.2000 -82.9383 65° Northeast 369 425 12,200 1,561 Climbing Cleveland Center
04:09PM 42.2469 -82.8061 64° Northeast 388 447 14,100 1,742 Climbing Cleveland Center
04:10PM 42.2942 -82.6686 65° Northeast 402 463 15,800 1,597 Climbing Cleveland Center
04:11PM 42.3436 -82.5275 65° Northeast 412 474 17,400 1,452 Climbing Cleveland Center
04:12PM 42.3656 -82.3736 79° East 431 496 18,800 1,463 Climbing Cleveland Center
04:13PM 42.3583 -82.1822 93° East 425 489 20,400 1,268 Climbing Cleveland Center
04:14PM 42.3511 -82.0422 94° East 429 494 21,400 919 Climbing Cleveland Center
04:15PM 42.3419 -81.8461 94° East 442 509 22,300 726 Climbing Cleveland Center
04:16PM 42.3344 -81.6722 93° East 454 522 22,900 634 Climbing Cleveland Center
04:17PM 42.3258 -81.4942 94° East 466 536 23,600 829 Climbing Cleveland Center
04:18PM 42.3178 -81.3164 93° East 469 540 24,600 823 Climbing Cleveland Center
04:19PM 42.3086 -81.1403 94° East 467 537 25,300 581 Climbing Cleveland Center
04:20PM 42.3000 -80.9608 94° East 471 542 25,800 488 Climbing Cleveland Center
04:21PM 42.2906 -80.7786 94° East 479 551 26,300 488 Climbing Cleveland Center
04:22PM 42.2808 -80.5956 94° East 483 556 26,800 339 Climbing Cleveland Center
04:23PM 42.2697 -80.4103 95° East 488 562 27,000 98 Climbing Cleveland Center
04:24PM 42.2592 -80.2203 94° East 499 574 27,000  Level Cleveland Center
04:25PM 42.2475 -80.0317 95° East 500 575 27,000  Level Cleveland Center
04:26PM 42.2347 -79.8283 95° East 494 568 27,000  Level Cleveland Center
04:27PM 42.2225 -79.6453 95° East 494 568 27,000  Level Cleveland Center
04:28PM 42.2103 -79.4608 95° East 497 572 27,000  Level Cleveland Center
04:30PM 42.1975 -79.2767 95° East 496 571 27,000  Level Cleveland Center
04:31PM 42.1886 -79.0536 93° East 500 575 27,000 -49 Level Cleveland Center
04:32PM 42.1933 -78.8619 88° East 499 574 26,900 -634 Descending Cleveland Center
04:33PM 42.1969 -78.6794 88° East 492 566 25,700 -1,317 Descending Cleveland Center
04:34PM 42.1989 -78.5108 89° East 461 531 24,200 -1,463 Descending Cleveland Center
04:35PM 42.2011 -78.3483 89° East 441 507 22,700 -1,512 Descending Cleveland Center
04:36PM 42.2039 -78.1842 89° East 440 506 21,100 -1,548 Descending Cleveland Center
04:37PM 42.2053 -78.0256 89° East 430 495 19,500 -1,610 Descending Cleveland Center
04:38PM 42.2069 -77.8431 89° East 414 476 17,800 -1,268 Descending Cleveland Center
04:39PM 42.2081 -77.6956 89° East 403 464 16,900 -439 Descending Cleveland Center
04:40PM 42.2089 -77.5428 90° East 408 470 16,900  Level Cleveland Center
04:41PM 42.2094 -77.3853 90° East 419 482 16,900  Level Cleveland Center
04:42PM 42.2100 -77.2278 90° East 423 487 16,900  Level Cleveland Center
04:43PM 42.2108 -77.0589 90° East 423 487 16,900 -621 Level New York Center
04:44PM 42.2106 -76.9050 90° East 423 487 15,700 -1,600 Descending New York Center
04:45PM 42.2136 -76.7625 88° East 410 472 13,700 -1,950 Descending New York Center
04:46PM 42.2111 -76.6447 92° East 368 423 11,800 -1,650 Descending New York Center
04:47PM 42.2108 -76.5242 90° East 341 392 10,400 -1,400 Descending New York Center
04:48PM 42.2100 -76.4122 91° East 314 361 9,000 -1,500 Descending New York Center
04:49PM 42.2247 -76.3181 78° East 280 322 7,400 -1,400 Descending New York Center
04:50PM 42.2442 -76.2161 76° East 274 315 6,200 -1,100 Descending New York Center
04:51PM 42.2603 -76.1336 75° East 254 292 5,200 -1,000 Descending New York Center
04:52PM 42.2861 -76.0656 63° Northeast 223 257 4,200 -1,200 Descending New York Center
04:53PM 42.2672 -76.0275 124° Southeast 135 155 2,800 -950 Descending New York Center
04:54PM 42.2392 -76.0000 144° Southeast 107 123 2,300 -500 Descending New York Center